TITAN 3C TRANSTAGE DEB, 3978

Orbit data source: Space-Track

TITAN 3C TRANSTAGE DEB, 3978 is space debris in LEO originally from a launch on Fri, 15 Oct 1965 UTC launched from the Air Force Eastern Test Range (AFETR). Debris objects in space refer to the collection of defunct objects orbiting the Earth. Examples of debris include non-operational satellites, rocket bodies, and fragments generated from explosions, collisions, or faulty payload assembly.

Loading next visibility...
Identifier
3978, 1965-082SE
Orbit
LEO
Country
Flag of USUS
Related business
Manufacturer
Unknown
Mission
Spacecraft
Bus & Motor
Unknown
Mass
Unknown
Launch date (UTC)
1965-10-15 (60 years ago)
Launch vehicle
Unknown
Launch site
Air Force Eastern Test Range (AFETR)
Object type
Payload
Rocket body
Debris
Shape & HBR
Unknown shape, 0.1 m
Radar Cross Section
Small (<0.1 m²)

Expand to show TLE details & history
Last TLE update: 1 day ago

TLE from 1 day ago
0 TITAN 3C TRANSTAGE DEB
1 03978U 65082SE  25340.37160528  .00001985  00000-0  31685-3 0  9993
2 03978  32.5652 340.8666 0033833  27.9019 332.3443 14.70100247418510
Epoch: 2025-12-06T08:55Z
TLE epoch observation values (Epoch: 2025-12-06T08:55:06.696Z)
Latitude
Longitude
131.68841°
Altitude
638.365 km
Speed
7.552 km/s
True Right ascension
22h 43m 27s
True Declination
0° 00' 00"
Sunlit
Object was in daylight at epoch
Visualization orbit readout
Latitude
Unknown
Longitude
Unknown
Altitude
Unknown
Speed
Unknown
Apparent Right ascension
Unknown
Apparent Declination
Unknown
Sunlit
N/A
Visualization observer readout
Local Sidereal Time
06:42:06
Azimuth
Unknown
Elevation
Unknown
Doppler factor
Unknown
Orbital elements
Apogee altitude
688.118 km
Perigee altitude
640.465 km
Semi-major axis
7,042.429 km
Eccentricity
0.00338
Inclination
32.5652°
RAAN
340.8666°
Arg. of periapsis
27.9019°
True anomaly
332.16367°
Mean anomaly
332.3443°
Eccentric anomaly
332.25405°
Mean motion
3.67248 °/min
Orbital period
98.03 mins
BSTAR
0.00031685

Documentation

Showing up to 5 results
|